Location: ????????
(60.4333°N, 46.4710°E)
Time: 02:57:22
(UTC+00:00)

Cosmos 1151 Rocket - Pass Details

Date: 25 November 2020
Orbit: 593 x 615 km, 82.5° (Epoch: 19 January)

Event Time Altitude Azimuth Distance (km) Brightness Sun altitude
Rises 14:18:08 0° 156° (SSE) 2,843 6.4 -15.3°
Reaches altitude 10° 14:20:36 10° 143° (SE) 1,942 5.4 -15.6°
Enters shadow 14:23:11 24° 109° (ESE) 1,270 4.2 -15.9°
